Gracewood, GA

2:39 PM EST on February 06, 2016 (GMT -0500)
Augusta Regional At Bush

Weather History for KAGS - February, 2014

Change the Weather History Date:

Wednesday, February 19, 2014

  Actual Average Record
Temperature  
Mean Temperature 67 °F 50 °F  
Max Temperature 80 °F 63 °F 82 °F (1956)
Min Temperature 54 °F 37 °F 16 °F (1958)
Degree Days  
Heating Degree Days 0 15  
Month to date heating degree days 338 320  
Since 1 July heating degree days 2039 1905  
Cooling Degree Days 2 0  
Month to date cooling degree days 2 0  
Year to date cooling degree days 2 1  
Growing Degree Days 16 (Base 50)    
Moisture  
Dew Point 54 °F    
Average Humidity 65    
Maximum Humidity 93    
Minimum Humidity 37    
Precipitation  
Precipitation 0.00 in 0.14 in 1.34 in (1946)
Month to date precipitation 3.10 2.60  
Year to date precipitation 5.58 6.51  
Sea Level Pressure  
Sea Level Pressure 30.05 in    
Wind  
Wind Speed 10 mph (SW)    
Max Wind Speed 21 mph    
Max Gust Speed 27 mph    
Visibility 10 miles    
Events      
T = Trace of Precipitation, MM = Missing Value Source: NWS Daily Summary

Daily Weather History Graph

Daily Weather History Graph

Search for Another Location

Airport or City:

Trip Planner

Search our weather history database for the weather conditions in past years. The results will help you decide how hot, cold, wet, or windy it might be!

Date:

Astronomy

Feb. 19, 2014 Rise Set
Actual Time 7:07 AM EST 6:16 PM EST
Civil Twilight 6:42 AM EST 6:41 PM EST
Nautical Twilight 6:13 AM EST 7:10 PM EST
Astronomical Twilight 5:44 AM EST 7:39 PM EST
Moon 10:51 PM EST (2/19) 9:27 AM EST (2/19)
Length of Visible Light 11h 59m
Length of Day
11h 08m
Waning Gibbous, 80% of the Moon is Illuminated
Feb 19
Waning Gibbous
Feb 22
Last Quarter
Mar 1
New
Mar 8
First Quarter
Mar 16
Full

Hourly Weather History & Observations

Time (EST) Temp. Dew Point Humidity Pressure Visibility Wind Dir Wind Speed Gust Speed Precip Events Conditions
12:53 AM 61.0 °F 55.9 °F 83% 30.08 in 10.0 mi South 8.1 mph - N/A   Clear
1:53 AM 59.0 °F 55.0 °F 87% 30.07 in 9.0 mi South 4.6 mph - N/A   Clear
2:53 AM 59.0 °F 55.9 °F 90% 30.07 in 10.0 mi SSW 6.9 mph - N/A   Clear
3:53 AM 57.9 °F 55.0 °F 90% 30.06 in 10.0 mi SSW 4.6 mph - N/A   Clear
4:53 AM 57.9 °F 55.0 °F 90% 30.05 in 10.0 mi SW 6.9 mph - N/A   Clear
5:53 AM 57.9 °F 55.9 °F 93% 30.06 in 10.0 mi SSW 6.9 mph - N/A   Mostly Cloudy
6:53 AM 57.9 °F 55.9 °F 93% 30.05 in 10.0 mi SW 11.5 mph - N/A   Clear
7:53 AM 60.1 °F 55.9 °F 86% 30.06 in 10.0 mi SW 13.8 mph 20.7 mph N/A   Clear
8:53 AM 64.0 °F 55.0 °F 73% 30.07 in 10.0 mi SW 13.8 mph 20.7 mph N/A   Clear
9:53 AM 69.1 °F 53.1 °F 57% 30.07 in 10.0 mi SW 13.8 mph 23.0 mph N/A   Clear
10:53 AM 71.1 °F 54.0 °F 55% 30.07 in 10.0 mi West 15.0 mph 25.3 mph N/A   Clear
11:53 AM 75.9 °F 52.0 °F 43% 30.05 in 10.0 mi West 16.1 mph - N/A   Clear
12:53 PM 77.0 °F 52.0 °F 42% 30.03 in 10.0 mi West 15.0 mph 23.0 mph N/A   Clear
1:53 PM 79.0 °F 52.0 °F 39% 29.99 in 10.0 mi SW 16.1 mph 25.3 mph N/A   Partly Cloudy
2:53 PM 79.0 °F 52.0 °F 39% 29.99 in 10.0 mi WSW 17.3 mph 25.3 mph N/A   Partly Cloudy
3:53 PM 78.1 °F 50.0 °F 37% 29.99 in 10.0 mi WSW 17.3 mph 26.5 mph N/A   Partly Cloudy
4:53 PM 75.9 °F 54.0 °F 46% 30.00 in 10.0 mi WSW 12.7 mph - N/A   Clear
5:53 PM 73.0 °F 52.0 °F 48% 30.02 in 10.0 mi WSW 10.4 mph - N/A   Clear
6:53 PM 70.0 °F 53.1 °F 55% 30.04 in 10.0 mi WSW 9.2 mph - N/A   Clear
7:53 PM 68.0 °F 53.1 °F 59% 30.06 in 10.0 mi WSW 8.1 mph - N/A   Clear
8:53 PM 63.0 °F 53.1 °F 70% 30.07 in 10.0 mi West 4.6 mph - N/A   Clear
9:53 PM 57.9 °F 52.0 °F 81% 30.09 in 10.0 mi WSW 3.5 mph - N/A   Clear
10:53 PM 55.0 °F 52.0 °F 89% 30.10 in 10.0 mi SSE 3.5 mph - N/A   Clear
11:53 PM 55.9 °F 52.0 °F 87% 30.08 in 10.0 mi Calm Calm - N/A   Clear